Tracking 17856 objects as of 28-September-2016
HD Live streaming from Space Station
objects crossing your sky now

COSMOS 2375 (GLONASS)

Track COSMOS 2375 (GLONASS) now!
COSMOS 2375 (GLONASS) is classified as:


NORAD ID: 26564
Int'l Code: 2000-063A
Perigee: 19,118.9 km
Apogee: 19,155.4 km
Inclination: 65.1 °
Period: 675.7 minutes
Semi major axis: 25508 km
RCS: 3.9905 m2 (large)
Launch date: October 13, 2000
Source: Commonwealth of Independent States (former USSR) (CIS)
Launch site: TYURATAM MISSILE AND SPACE COMPLEX (TTMTR)
SV:

Russia's version of the GPS system, functions the same; there has been cooperation between the two; much scaled-back constellation
Your satellite tracking list
Your tracking list is empty





NASA's NSSDC Master Catalog

Two Line Element Set (TLE):
1 26564U 00063A   16270.38718214  .00000026  00000-0  00000+0 0  9999
2 26564  65.0656  73.9094 0007153  53.9314 306.1617  2.13101678124152
Source of the keplerian elements: AFSPC

N2YO: 496